This demonstration page uses our WeatherBlox Daily Observations layout. Learn more.

Left ArrowRight Arrow

38.89511, -77.03637

Hourly Observations for March 30, 2021

Temp ( °F °C ) Dew Point ( °F °C ) Humidity (%) Winds ( mph kmh ) Pressure ( in mb ) Visibility ( mi km ) Precip ( " mm )
12:52 am 00:52 Clear 49 9.4 29 -1.7 46 46 SSE 7 11 30.31 1026 10 16.0934 0 0
3:52 am 03:52 Mostly Clear 48 8.9 29 -1.7 48 48 SE 5 7 30.31 1026 10 16.0934 0 0
4:52 am 04:52 Mostly Clear 47 8.3 34 1.1 61 61 SSE 6 9 30.32 1027 10 16.0934 0 0
5:52 am 05:52 Mostly Clear 46 7.8 35 1.7 66 66 SSE 5 7 30.33 1027 10 16.0934 0 0
6:52 am 06:52 Partly Cloudy 46 7.8 37 2.8 71 71 SSE 6 9 30.35 1028 10 16.0934 0 0
7:52 am 07:52 Mostly Sunny 47 8.3 40 4.4 77 77 SSE 5 7 30.37 1029 10 16.0934 0 0
8:52 am 08:52 Sunny 50 10 42 5.6 74 74 S 9 15 30.38 1029 10 16.0934 0 0
9:52 am 09:52 Sunny 54 12.2 43 6.1 67 67 S 8 13 30.37 1029 10 16.0934 0 0
10:52 am 10:52 Sunny 58 14.4 43 6.1 58 58 SSE 8 13 30.37 1029 10 16.0934 0 0
11:52 am 11:52 Sunny 63 17.2 38 3.3 40 40 SSW 14 22 30.35 1028 10 16.0934 0 0
12:52 pm 12:52 Sunny 65 18.3 40 4.4 40 40 S 10 17 30.33 1027 10 16.0934 0 0
1:52 pm 13:52 Sunny 66 18.9 41 5 40 40 S 13 20 30.31 1026 10 16.0934 0 0
2:52 pm 14:52 Sunny 68 20 40 4.4 36 36 S 13 20 30.28 1025 10 16.0934 0 0
3:52 pm 15:52 Sunny 69 20.6 39 3.9 33 33 S 13 20 30.24 1024 10 16.0934 0 0
4:52 pm 16:52 Mostly Sunny 69 20.6 40 4.4 35 35 S 15 24 30.23 1024 10 16.0934 0 0
5:52 pm 17:52 Partly Cloudy 67 19.4 43 6.1 42 42 S 16 26 30.22 1023 10 16.0934 0 0
6:52 pm 18:52 Mostly Cloudy 63 17.2 42 5.6 47 47 SE 16 26 30.23 1024 10 16.0934 0 0
7:52 pm 19:52 Mostly Cloudy 61 16.1 41 5 48 48 SSE 10 17 30.22 1024 10 16.0934 0 0
8:52 pm 20:52 Mostly Cloudy 59 15 43 6.1 56 56 SSE 8 13 30.24 1024 10 16.0934 0 0
9:52 pm 21:52 Mostly Cloudy 58 14.4 43 6.1 58 58 S 9 15 30.23 1024 10 16.0934 0 0
10:52 pm 22:52 Mostly Cloudy 57 13.9 45 7.2 64 64 S 9 15 30.23 1024 10 16.0934 0 0
11:52 pm 23:52 Mostly Cloudy 56 13.3 46 7.8 70 70 S 8 13 30.21 1023 10 16.0934 0 0

Powered by AerisWeather